Meteopurmerend
purmerend
Purmerend - Baaienwijk



My webcam  My webcam


waarschuwing voor Onweer Meer informatie blitzortung!


Regen radar Meer informatie rain snow radar


Bezoek onze andere website:

CandyAppleRed WebdesignWebdesign Purmerend Candy Apple Red

MeteopurmerendBlog

Template documentation
and downloads



Onweer van: 26-07-2021 13:00 tot: 21:00 waarschuwing voor: Onweer niveau: Geel info button
Enkele onweersbuien, lokaal met hagel en veel neerslag in korte tijd.Kans op blikseminslag, hagel en veel neerslag in korte tijd.Verkeer en buitenactiviteiten kunnen hinder ondervinden.Mijd open water en open gebied, schuil niet onder bomen.Volg weerberichten en waarschuwingen.

15 daagse weersverwachting Vantaa (FI)

  • Overzicht
  • Per uur
  • 15 dagen
  • Extra
  • Vergelijk
  • Kaarten
  • Dagkaart
  • Meer »
  • Info
  • Statistieken
  • Directe link
    Temp 6h Neerslag Wind  
 04:49     22:06    Daglengte: 17:17 Vandaag
21:00
24°
 
2
 04:51     22:04    Daglengte: 17:13 Morgen
03:00
17°
 
1
09:00
23°
 
2
15:00
29°
 
4
21:00
25°
 
3
 04:53     22:01    Daglengte: 17:08 Woensdag 28 Jul
03:00
19°
 
2
09:00
22°
 
3
15:00
20°
8.0 mm
4
21:00
20°
6.3 mm
2
 04:55     21:59    Daglengte: 17:04 Donderdag 29 Jul
03:00
18°
6.7 mm
3
09:00
19°
9.5 mm
4
15:00
22°
8.2 mm
5
Locatie info
Region: Uusimaa
Latitude: 60.2894°N
Longitude: 25.0296°E
18 masl
Postcode: 01300
Temp/Neerslag /Baro Onweer/Dauwpunt
    Temp Baro 1h Neerslag Dauwpunt Wind UV Bewolking  
 04:49     22:06    Daglengte: 17:17 Vandaag
18:00
28°
Voelt als: 27.0°
1019.4 hPa   9.8°
3
Windvlaag: 6.6 m/s
2%
19:00
27°
Voelt als: 26.8°
1019.1 hPa   10.3°
3
Windvlaag: 5.9 m/s
7%
20:00
26°
1019.0 hPa   11.6°
2
Windvlaag: 5.2 m/s
11%
21:00
24°
1019.0 hPa   13.8°
2
Windvlaag: 4.2 m/s
9%
22:00
22°
1019.3 hPa   14.4°
1
Windvlaag: 3.1 m/s
4%
23:00
20°
1019.6 hPa   15.3°
1
Windvlaag: 2 m/s
1%
 04:51     22:04    Daglengte: 17:13 Morgen
00:00
19°
1019.7 hPa   15.2°
1
Windvlaag: 1.3 m/s
1%
01:00
19°
1019.6 hPa   15.3°
1
Windvlaag: 1.2 m/s
3%
02:00
18°
1019.5 hPa   15.3°
1
Windvlaag: 0.4 m/s
7%
03:00
17°
1019.4 hPa   15.2°
1
Windvlaag: 0 m/s
6%
04:00
17°
1019.4 hPa   15.5°
1
Windvlaag: -0.4 m/s
4%
05:00
16°
1019.2 hPa   15.4°
1
Windvlaag: -0.9 m/s
9%
06:00
17°
1019.1 hPa   15.5°
1
Windvlaag: -0.4 m/s
23%
07:00
18°
1018.8 hPa   15.9°
1
Windvlaag: -1.1 m/s
19%
08:00
20°
1018.6 hPa   16.1°
2
Windvlaag: 0.7 m/s
34%
09:00
23°
1018.4 hPa   15.2°
2
Windvlaag: 1.1 m/s
46%
10:00
25°
1018.3 hPa   14.2°
2
Windvlaag: 2.2 m/s
49%
11:00
27°
1018.0 hPa   13.2°
3
Windvlaag: 3.5 m/s
49%
12:00
28°
Voelt als: 27.2°
1017.8 hPa   12.1°
4
Windvlaag: 4.8 m/s
34%
13:00
28°
Voelt als: 27.6°
1017.5 hPa   11.7°
4
Windvlaag: 6 m/s
35%
14:00
29°
Voelt als: 27.8°
1017.2 hPa   11.5°
4
Windvlaag: 6.1 m/s
22%
15:00
29°
Voelt als: 27.8°
1016.7 hPa   11.6°
4
Windvlaag: 6 m/s
55%
16:00
28°
Voelt als: 27.6°
1016.1 hPa   11.3°
4
Windvlaag: 5.9 m/s
14%
17:00
28°
Voelt als: 27.6°
1015.5 hPa   11.1°
4
Windvlaag: 4.6 m/s
12%
18:00
28°
Voelt als: 27.3°
1015.0 hPa   10.9°
4
Windvlaag: 4.2 m/s
16%
19:00
27°
Voelt als: 26.8°
1014.5 hPa   10.9°
4
Windvlaag: 3.7 m/s
14%
20:00
26°
1014.0 hPa   11.7°
3
Windvlaag: 2.9 m/s
10%
21:00
25°
1013.7 hPa   14.8°
3
Windvlaag: 2.6 m/s
11%
22:00
23°
1013.5 hPa   15.3°
3
Windvlaag: 2.8 m/s
15%
23:00
21°
1013.2 hPa   15.7°
3
Windvlaag: 1.5 m/s
17%
 04:53     22:01    Daglengte: 17:08 Woensdag 28 Jul
00:00
20°
1012.7 hPa   15.8°
3
Windvlaag: 1.8 m/s
20%
01:00
20°
1012.2 hPa   16.0°
3
Windvlaag: 2.1 m/s
21%
02:00
20°
1011.7 hPa   16.1°
3
Windvlaag: 4.4 m/s
20%
03:00
19°
1011.2 hPa   14.5°
2
Windvlaag: 5.1 m/s
21%
04:00
19°
1010.6 hPa   15.2°
2
Windvlaag: 4.6 m/s
20%
05:00
18°
1010.3 hPa   16.3°
2
Windvlaag: 2.2 m/s
32%
06:00
18°
1009.8 hPa   16.9°
2
Windvlaag: 2.2 m/s
56%
07:00
20°
1009.4 hPa   17.1°
2
Windvlaag: 1.3 m/s
82%
08:00
20°
1008.9 hPa   16.3°
3
Windvlaag: 2.7 m/s
83%
09:00
22°
1008.6 hPa
13%
15.3°
3
Windvlaag: 3.7 m/s
86%
10:00
22°
1008.4 hPa
16%
13.8°
4
Windvlaag: 2.8 m/s
84%
11:00
22°
1008.2 hPa
66%
11.8°
4
Windvlaag: 2.1 m/s
85%
12:00
22°
1007.1 hPa 3.8 mm
51%
17.3°
4
Windvlaag: 2.3 m/s
99%
13:00
22°
1007.0 hPa 1.6 mm
97%
17.1°
3
Windvlaag: 2.2 m/s
100% warningclass
14:00
21°
1006.8 hPa 1.8 mm
100%
17.8°
3
Windvlaag: 7.4 m/s
100% warningclass
15:00
20°
1006.3 hPa 0.8 mm
100%
18.1°
4
Windvlaag: 7.8 m/s
100%
16:00
21°
1006.2 hPa 0.9 mm
100%
17.0°
4
Windvlaag: 8.4 m/s
96%
17:00
20°
1005.3 hPa 1.4 mm
100%
16.7°
4
Windvlaag: 9.2 m/s
99%
18:00
20°
1005.0 hPa 0.9 mm
100%
15.6°
3
Windvlaag: 8.1 m/s
100% warningclass
19:00
20°
1005.2 hPa 1.0 mm
100%
17.5°
3
Windvlaag: 4.8 m/s
99%
20:00
20°
1004.9 hPa 1.0 mm
100%
18.8°
2
Windvlaag: 3.3 m/s
81% warningclass
21:00
20°
1004.4 hPa 1.0 mm
91%
18.7°
2
Windvlaag: 4.3 m/s
64%
22:00
19°
1004.2 hPa 1.6 mm
21%
18.4°
2
Windvlaag: 4.4 m/s
78%
23:00
19°
1004.4 hPa 1.8 mm
21%
18.7°
3
Windvlaag: 6.3 m/s
80% warningclass
 04:55     21:59    Daglengte: 17:04 Donderdag 29 Jul
00:00
18°
1004.0 hPa 2.0 mm
21%
18.5°
3
Windvlaag: 6.2 m/s
85% warningclass
01:00
18°
1003.5 hPa 1.3 mm
21%
18.4°
3
Windvlaag: 5.4 m/s
81%
02:00
18°
1003.3 hPa
22%
18.1°
3
Windvlaag: 5.4 m/s
84%
03:00
18°
1003.1 hPa
23%
18.4°
3
Windvlaag: 5.5 m/s
68%
04:00
18°
1002.4 hPa 1.2 mm
21%
18.2°
3
Windvlaag: 4.9 m/s
77%
05:00
18°
1002.0 hPa 1.6 mm
21%
18.0°
3
Windvlaag: 4.4 m/s
81%
06:00
18°
1001.9 hPa 2.4 mm
21%
18.0°
3
Windvlaag: 3 m/s
89%
07:00
18°
1001.5 hPa 2.3 mm
80%
18.3°
3
Windvlaag: 3.3 m/s
100%
08:00
19°
1001.5 hPa 0.9 mm
98%
18.2°
3
Windvlaag: 3.7 m/s
97%
09:00
19°
1001.3 hPa 0.8 mm
100%
17.6°
4
Windvlaag: 3.1 m/s
100%
10:00
20°
1001.2 hPa 1.4 mm
96%
16.8°
4
Windvlaag: 8 m/s
98% warningclass
11:00
20°
1000.8 hPa 1.5 mm
96%
15.3°
5
Windvlaag: 8.3 m/s
96%
12:00
21°
1000.5 hPa 1.3 mm
100%
14.2°
5
Windvlaag: 7.8 m/s
96%
13:00
21°
1000.0 hPa 1.3 mm
100%
13.9°
5
Windvlaag: 7.4 m/s
85%
14:00
21°
999.6 hPa
100%
14.7°
5
Windvlaag: 7.3 m/s
36%
15:00
22°
999.2 hPa 1.4 mm
100%
13.8°
5
Windvlaag: 8.2 m/s
68%
Temp/Neerslag /Baro Onweer/Dauwpunt
    Temp Baro Neerslag Dauwpunt Wind Bewolking  
 04:49     22:06    Daglengte: 17:17 Vandaag
18:00
28°
Voelt als: 27.0°
1019.4 hPa   9.8°
3
2%
21:00
24°
1019.0 hPa   13.8°
2
9%
 04:51     22:04    Daglengte: 17:13 Morgen
00:00
19°
1019.7 hPa   15.2°
1
1%
03:00
17°
1019.4 hPa   15.2°
1
6%
06:00
17°
1019.1 hPa   15.5°
1
23%
09:00
23°
1018.4 hPa   15.2°
2
46%
12:00
28°
Voelt als: 27.2°
1017.8 hPa   12.1°
4
34%
15:00
29°
Voelt als: 27.8°
1016.7 hPa   11.6°
4
55%
18:00
28°
Voelt als: 27.3°
1015.0 hPa   10.9°
4
16%
21:00
25°
1013.7 hPa   14.8°
3
11%
 04:53     22:01    Daglengte: 17:08 Woensdag 28 Jul
00:00
20°
1012.7 hPa   15.8°
3
20%
03:00
19°
1011.2 hPa   14.5°
2
21%
06:00
18°
1009.8 hPa   16.9°
2
56%
09:00
22°
1008.6 hPa   15.3°
3
86%
12:00
22°
1007.1 hPa 3.8 mm 17.3°
4
99%
15:00
20°
1006.3 hPa 4.2 mm 18.1°
4
100%
18:00
20°
1005.0 hPa 3.2 mm 15.6°
3
100% warningclass
21:00
20°
1004.4 hPa 3.0 mm 18.7°
2
64%
 04:55     21:59    Daglengte: 17:04 Donderdag 29 Jul
00:00
18°
1004.0 hPa 5.4 mm 18.5°
3
85% warningclass
03:00
18°
1003.1 hPa 1.3 mm 18.4°
3
68%
06:00
18°
1001.9 hPa 5.3 mm 18.0°
3
89%
09:00
19°
1001.3 hPa 4.1 mm 17.6°
4
100%
12:00
21°
1000.5 hPa 4.2 mm 14.2°
5
96%
15:00
22°
999.2 hPa 3.9 mm 13.8°
5
68%
18:00
23°
1000.2 hPa 9.0 mm 14.9°
7
0%
21:00
19°
999.9 hPa 9.0 mm 15.0°
5
0%
 04:58     21:56    Daglengte: 16:58 Vrijdag 30 Jul
00:00
18°
998.9 hPa 9.0 mm 14.5°
4
1%
03:00
17°
997.8 hPa 9.5 mm 13.2°
6
1%
06:00
16°
996.8 hPa 9.7 mm 11.3°
6
0%
09:00
17°
995.5 hPa 12.0 mm 14.2°
7
0%
12:00
18°
994.3 hPa 15.1 mm 14.1°
8
1%
15:00
17°
993.1 hPa 18.7 mm 14.7°
8
1%
18:00
16°
991.2 hPa 24.8 mm 13.7°
7
1%
21:00
14°
989.8 hPa 25.9 mm 11.8°
7
1%
 05:00     21:54    Daglengte: 16:54 Zaterdag 31 Jul
00:00
14°
991.0 hPa 26.0 mm 11.7°
6
1%
03:00
14°
991.7 hPa 26.9 mm 10.8°
7
1%
06:00
13°
993.2 hPa 27.0 mm 10.3°
5
0%
09:00
17°
994.4 hPa 27.0 mm 9.8°
5
0%
12:00
22°
995.5 hPa 27.0 mm 8.5°
4
0%
15:00
23°
996.1 hPa 27.0 mm 10.8°
4
0%
18:00
23°
997.2 hPa 27.0 mm 12.1°
5
0%
21:00
19°
999.0 hPa 27.0 mm 12.3°
4
0%
 05:03     21:51    Daglengte: 16:48 Zondag 01 Aug
00:00
14°
1000.6 hPa 27.0 mm 12.0°
3
0%
03:00
13°
1001.1 hPa 27.0 mm 11.8°
2
0%
06:00
14°
1000.9 hPa 27.0 mm 12.8°
2
0%
09:00
18°
1000.2 hPa 27.3 mm 15.3°
3
1%
12:00
17°
999.9 hPa 28.8 mm 15.6°
3
1%
15:00
18°
998.2 hPa 30.6 mm 16.5°
5
1%
18:00
19°
997.5 hPa 38.1 mm 15.5°
6
1%
21:00
17°
998.5 hPa 38.5 mm 14.5°
6
1%
 05:05     21:49    Daglengte: 16:44 Maandag 02 Aug
00:00
15°
998.9 hPa 38.7 mm 14.0°
3
0%
03:00
14°
999.3 hPa 38.7 mm 13.3°
2
1%
06:00
15°
1000.1 hPa 38.8 mm 13.3°
2
1%
09:00
19°
999.6 hPa 38.9 mm 13.8°
3
1%
12:00
20°
999.8 hPa 39.2 mm 12.9°
4
1%
15:00
21°
999.3 hPa 78.5 mm 12.1°
3
1%
21:00
17°
997.9 hPa 78.6 mm 13.7°
2
1%
 05:07     21:46    Daglengte: 16:39 Dinsdag 03 Aug
03:00
13°
997.5 hPa 79.4 mm 11.5°
2
1%
09:00
17°
997.3 hPa 80.2 mm 12.9°
4
1%
15:00
19°
1000.8 hPa 80.8 mm 8.4°
6
0%
21:00
15°
1002.4 hPa 80.9 mm 10.5°
5
0%
 05:10     21:44    Daglengte: 16:34 Woensdag 04 Aug
03:00
11°
1003.1 hPa 82.6 mm 9.4°
4
0%
09:00
16°
1005.3 hPa 82.6 mm 8.1°
4
0%
15:00
19°
1005.2 hPa 82.9 mm 10.0°
7
1%
21:00
16°
1006.7 hPa 83.3 mm 10.5°
4
0%
 05:12     21:41    Daglengte: 16:29 Donderdag 05 Aug
03:00
16°
1005.1 hPa 86.3 mm 14.7°
5
1%
09:00
17°
1003.3 hPa 96.8 mm 15.8°
7
1%
15:00
19°
1008.7 hPa 2.1 mm 12.3°
2
62%
21:00
17°
1008.6 hPa 0.1 mm 12.2°
1
59%
 05:15     21:38    Daglengte: 16:23 Vrijdag 06 Aug
03:00
14°
1009.0 hPa 0.7 mm 11.4°
1
54%
09:00
17°
1008.6 hPa 0.4 mm 12.7°
1
54%
15:00
20°
1008.3 hPa   13.2°
2
57%
21:00
17°
1007.8 hPa 0.2 mm 12.9°
1
58%
 05:17     21:36    Daglengte: 16:19 Zaterdag 07 Aug
03:00
15°
1007.7 hPa 0.6 mm 12.3°
1
57%
09:00
17°
1007.1 hPa 0.4 mm 13.2°
2
62%
15:00
20°
1006.7 hPa 0.5 mm 13.3°
2
60%
21:00
18°
1006.6 hPa 0.8 mm 13.2°
1
64%
 05:19     21:33    Daglengte: 16:14 Zondag 08 Aug
03:00
15°
1006.8 hPa 0.6 mm 12.1°
1
60%
09:00
17°
1006.4 hPa 0.8 mm 13.2°
2
62%
15:00
20°
1006.5 hPa 0.9 mm 13.6°
2
57%
21:00
17°
1006.9 hPa 1.1 mm 13.2°
1
62%
 05:22     21:30    Daglengte: 16:08 Maandag 09 Aug
03:00
15°
1007.2 hPa 1.1 mm 12.8°
1
63%
09:00
17°
1007.1 hPa 0.7 mm 13.6°
1
64%
15:00
20°
1007.4 hPa 1.6 mm 13.9°
2
66%
21:00
17°
1007.6 hPa 0.8 mm 13.4°
1
70%
 05:24     21:28    Daglengte: 16:04 Dinsdag 10 Aug
03:00
15°
1007.7 hPa 0.6 mm 12.5°
0
65%
09:00
17°
1007.5 hPa 0.8 mm 13.3°
1
66%
15:00
19°
1007.7 hPa 2.1 mm 13.7°
2
66%
  CAPE Lifted Index Hail Supercell Tornado SRH 3km CL BTM PRES CL TOP PRES Swiss DWD icon SMHI TS
 04:49     22:06    Daglengte: 17:17 Vandaag
18:00 0 J/kg 2.6 K 0 % 0 % 0 % 0 m²/s² 0 0 6.89 0
19:00 0 J/kg 2.3 K 0 % 0 % 0 % 0 m²/s² 0 0 6.71 0
20:00 0 J/kg 2.0 K 0 % 0 % 0 % 0 m²/s² 0 0 6.41 0
21:00 0 J/kg 1.3 K 0 % 0 % 0 % 0 m²/s² 0 0 5.83 0
22:00 0 J/kg 0.7 K 0 % 0 % 0 % 0 m²/s² 0 0 5.14 0
23:00 0 J/kg 0.3 K 0 % 0 % 0 % 0 m²/s² 0 0 4.62 0
 04:51     22:04    Daglengte: 17:13 Morgen
00:00 0 J/kg 0.0 K 0 % 0 % 0 % 0 m²/s² 0 0 4.11 0
01:00 0 J/kg 0.2 K 0 % 0 % 0 % 0 m²/s² 0 0 4.01 0
02:00 0 J/kg 0.6 K 0 % 0 % 0 % 0 m²/s² 0 0 4.2 0
03:00 0 J/kg 1.1 K 0 % 0 % 0 % 0 m²/s² 0 0 4.43 0
04:00 0 J/kg 1.3 K 0 % 0 % 0 % 0 m²/s² 0 0 4.72 0
05:00 0 J/kg 1.3 K 0 % 0 % 0 % 0 m²/s² 0 0 4.63 1
06:00 4 J/kg 0.8 K 0 % 0 % 0 % 0 m²/s² 0 0 4.13 3
07:00 7 J/kg 0.4 K 0 % 0 % 0 % 0 m²/s² 0 0 3.82 1
08:00 21 J/kg 0.3 K 0 % 0 % 0 % 0 m²/s² 0 0 3.72 3
09:00 63 J/kg -0.4 K 0 % 0 % 0 % 0 m²/s² 0 0 2.93 3
10:00 96 J/kg -0.5 K 0 % 0 % 0 % 0 m²/s² 0 0 2.56 3
11:00 15 J/kg 0.3 K 0 % 0 % 0 % 0 m²/s² 0 0 3.54 3
12:00 6 J/kg 0.5 K 0 % 0 % 0 % 0 m²/s² 0 0 3.74 3
13:00 0 J/kg 1.0 K 0 % 0 % 0 % 0 m²/s² 0 0 4.51 3
14:00 0 J/kg 1.1 K 0 % 0 % 0 % 0 m²/s² 0 0 4.91 1
15:00 0 J/kg 1.0 K 0 % 0 % 0 % 0 m²/s² 0 0 5.14 3
16:00 0 J/kg 0.6 K 0 % 0 % 0 % 0 m²/s² 0 0 5.07 0
17:00 0 J/kg 0.4 K 0 % 0 % 0 % 0 m²/s² 0 0 4.87 0
18:00 3 J/kg 0.3 K 0 % 0 % 0 % 0 m²/s² 0 0 4.53 0
19:00 0 J/kg 0.3 K 0 % 0 % 0 % 0 m²/s² 0 0 4.44 0
20:00 0 J/kg 0.1 K 0 % 0 % 0 % 0 m²/s² 0 0 4.12 1
21:00 0 J/kg -0.8 K 0 % 0 % 0 % 0 m²/s² 0 0 2.83 1
22:00 0 J/kg -0.4 K 0 % 0 % 0 % 0 m²/s² 0 0 3.32 0
23:00 0 J/kg -0.5 K 0 % 0 % 0 % 0 m²/s² 0 0 3.22 1
 04:53     22:01    Daglengte: 17:08 Woensdag 28 Jul
00:00 0 J/kg -1.1 K 0 % 0 % 0 % 0 m²/s² 0 0 1.06 2
01:00 0 J/kg -1.7 K 0 % 0 % 0 % 0 m²/s² 0 0 0.67 2
02:00 0 J/kg -2.0 K 0 % 0 % 0 % 0 m²/s² 0 0 0.1 2
03:00 0 J/kg -2.1 K 0 % 0 % 0 % 0 m²/s² 0 0 0 1
04:00 0 J/kg -1.9 K 0 % 0 % 0 % 0 m²/s² 0 0 -0.88 2
05:00 0 J/kg -1.5 K 0 % 0 % 0 % 0 m²/s² 0 0 -0.84 3
06:00 0 J/kg -1.6 K 0 % 0 % 0 % 0 m²/s² 0 0 -0.7 2
07:00 0 J/kg -1.8 K 0 % 0 % 0 % 0 m²/s² 0 0 -0.69 3
08:00 67 J/kg -1.4 K 0 % 0 % 0 % 0 m²/s² 0 0 -0.53 3
09:00 88 J/kg -1.2 K 0 % 0 % 0 % 0 m²/s² 0 0 -0.3 3
10:00 205 J/kg -1.9 K 0 % 0 % 0 % 0 m²/s² 0 0 -0.4 3
11:00 350 J/kg -2.3 K 0 % 0 % 0 % 0 m²/s² 0 0 -1.4 3
12:00 429 J/kg -2.4 K 0 % 0 % 0 % 0 m²/s² 0 0 -1.02 3
13:00 596 J/kg -2.8 K 0 % 0 % 0 % 0 m²/s² 0 0 -2.26 61
14:00 454 J/kg -2.8 K 0 % 0 % 0 % 0 m²/s² 0 0 -2.8 61
15:00 0 J/kg -1.4 K 0 % 0 % 0 % 0 m²/s² 0 0 -1.19 80
16:00 7 J/kg 0.2 K 0 % 0 % 0 % 0 m²/s² 0 0 0.77 3
17:00 216 J/kg -1.4 K 0 % 0 % 0 % 0 m²/s² 0 0 -0.17 80
18:00 174 J/kg -2.0 K 0 % 0 % 0 % 0 m²/s² 0 0 -1.46 95
19:00 347 J/kg -2.8 K 0 % 0 % 0 % 0 m²/s² 0 0 -1.93 80
20:00 355 J/kg -2.2 K 0 % 0 % 0 % 0 m²/s² 0 0 -1.39 95
21:00 262 J/kg -1.6 K 0 % 0 % 0 % 0 m²/s² 0 0 -0.94 3
22:00 471 J/kg -2.2 K 0 % 0 % 0 % 0 m²/s² 0 0 -1.75 2
23:00 548 J/kg -2.3 K 0 % 0 % 0 % 0 m²/s² 0 0 -2.3 2
 04:55     21:59    Daglengte: 17:04 Donderdag 29 Jul
00:00 541 J/kg -2.4 K 0 % 0 % 0 % 0 m²/s² 0 0 -2.22 2
01:00 381 J/kg -1.8 K 0 % 0 % 0 % 0 m²/s² 0 0 -1.17 2
02:00 524 J/kg -2.6 K 0 % 0 % 0 % 0 m²/s² 0 0 -1.43 2
03:00 596 J/kg -2.8 K 0 % 0 % 0 % 0 m²/s² 0 0 -0.97 2
04:00 482 J/kg -2.3 K 0 % 0 % 0 % 0 m²/s² 0 0 1.15 2
05:00 445 J/kg -2.0 K 0 % 0 % 0 % 0 m²/s² 0 0 2.59 2
06:00 412 J/kg -1.8 K 0 % 0 % 0 % 0 m²/s² 0 0 2.55 3
07:00 395 J/kg -1.4 K 0 % 0 % 0 % 0 m²/s² 0 0 2.23 3
08:00 702 J/kg -2.6 K 0 % 0 % 0 % 0 m²/s² 0 0 0.07 3
09:00 968 J/kg -2.9 K 0 % 0 % 0 % 0 m²/s² 0 0 -0.89 80
10:00 1157 J/kg -3.9 K 0 % 0 % 0 % 0 m²/s² 0 0 -2.01 80
11:00 1098 J/kg -3.6 K 0 % 0 % 0 % 0 m²/s² 0 0 -0.93 80
12:00 1007 J/kg -3.5 K 0 % 0 % 0 % 0 m²/s² 0 0 -0.17 80
13:00 965 J/kg -3.4 K 0 % 0 % 0 % 0 m²/s² 0 0 0.29 80
14:00 1046 J/kg -3.6 K 0 % 0 % 0 % 0 m²/s² 0 0 -0.27 2
15:00 818 J/kg -2.8 K 0 % 0 % 0 % 0 m²/s² 0 0 0.11 80
Temp Baro Wind Neerslag
  EWN Forecast EWN WRFDA DWD ICON FMI HIRLAM MET Norway GFS
 04:49     22:06    Daglengte: 17:17 Vandaag
18:00 27.7° 1019.4 hPa 2.9 m/s 0.0 mm 26.2° 1019.2 hPa 2.4 m/s 0.0 mm 27.8° 1019.3 hPa 3.2 m/s -2.0 mm 27.8° 1019.4 hPa 3.0 m/s 0.0 mm 26.0° 1019.3 hPa 2.9 m/s
21:00 24.3° 1019.0 hPa 1.8 m/s 0.0 mm 21.7° 1018.5 hPa 1.6 m/s 0.0 mm 24.6° 1018.7 hPa 1.9 m/s 0.0 mm 23.7° 1019.1 hPa 1.4 m/s 0.0 mm 21.2° 1018.9 hPa 1.8 m/s
 04:51     22:04    Daglengte: 17:13 Morgen
00:00 19.3° 1019.7 hPa 0.9 m/s 0.0 mm 17.2° 1019.0 hPa 2.0 m/s 0.0 mm 19.8° 1019.6 hPa 0.7 m/s 0.0 mm 16.8° 1019.7 hPa 0.7 m/s 0.0 mm 18.2° 1019.3 hPa 0.3 m/s
03:00 17.3° 1019.4 hPa 1.3 m/s 0.0 mm 15.7° 1019.3 hPa 2.4 m/s 0.0 mm 17.9° 1018.9 hPa 1.1 m/s 0.0 mm 14.3° 1019.5 hPa 1.3 m/s 0.0 mm 17.1° 1019.5 hPa 1.5 m/s
06:00 16.5° 1019.1 hPa 1.5 m/s 0.0 mm 17.5° 1018.7 hPa 2.4 m/s 0.0 mm 17.0° 1018.8 hPa 1.3 m/s 0.0 mm 13.0° 1019.4 hPa 1.1 m/s 0.0 mm 17.5° 1018.9 hPa 1.8 m/s
09:00 22.5° 1018.4 hPa 2.0 m/s 0.0 mm 22.9° 1018.0 hPa 3.4 m/s 0.0 mm 23.2° 1018.1 hPa 2.1 m/s 0.0 mm 21.9° 1018.8 hPa 1.2 m/s 0.0 mm 23.1° 1018.2 hPa 2.4 m/s
12:00 27.6° 1017.8 hPa 3.5 m/s 0.0 mm 25.4° 1017.4 hPa 5.1 m/s 0.0 mm 26.4° 1017.6 hPa 3.7 m/s 0.0 mm 28.0° 1018.0 hPa 3.0 m/s 0.0 mm 25.5° 1017.6 hPa 4.0 m/s
15:00 28.6° 1016.7 hPa 4.3 m/s 0.0 mm 26.1° 1016.2 hPa 5.4 m/s 0.0 mm 28.2° 1016.1 hPa 4.1 m/s 0.0 mm 29.1° 1016.9 hPa 4.0 m/s 0.0 mm 26.6° 1016.4 hPa 4.3 m/s
18:00 28.0° 1015.0 hPa 4.3 m/s 0.0 mm 25.8° 1014.7 hPa 5.3 m/s 0.0 mm 28.5° 1014.4 hPa 4.2 m/s 0.0 mm 28.2° 1015.2 hPa 3.7 m/s 0.0 mm 26.1° 1015.1 hPa 4.4 m/s
21:00 24.9° 1013.7 hPa 2.8 m/s 0.0 mm 22.8° 1012.9 hPa 3.7 m/s 0.0 mm 25.3° 1013.4 hPa 2.8 m/s 0.0 mm 23.7° 1013.9 hPa 1.3 m/s 0.0 mm 22.0° 1013.8 hPa 3.3 m/s
 04:53     22:01    Daglengte: 17:08 Woensdag 28 Jul
00:00 20.2° 1012.7 hPa 2.7 m/s 0.0 mm 20.3° 1012.1 hPa 4.0 m/s 0.0 mm 20.1° 1012.5 hPa 2.4 m/s 0.0 mm 17.2° 1013.1 hPa 1.4 m/s 0.0 mm 18.6° 1013.6 hPa 2.4 m/s
03:00 19.3° 1011.2 hPa 2.5 m/s 0.0 mm 19.0° 1010.4 hPa 3.7 m/s 0.0 mm 19.4° 1011.2 hPa 2.3 m/s 0.0 mm 16.0° 1011.6 hPa 2.3 m/s 0.0 mm 17.5° 1012.1 hPa 2.3 m/s
06:00 18.4° 1009.8 hPa 2.3 m/s 0.0 mm 19.5° 1008.7 hPa 4.5 m/s 0.0 mm 18.5° 1009.9 hPa 2.3 m/s 0.0 mm 14.8° 1010.5 hPa 2.2 m/s 0.0 mm 17.6° 1010.8 hPa 1.8 m/s
09:00 21.6° 1008.6 hPa 2.9 m/s 0.0 mm 22.4° 1007.9 hPa 5.2 m/s 0.0 mm 21.9° 1008.6 hPa 3.6 m/s 0.0 mm 21.9° 1009.3 hPa 2.5 m/s 0.0 mm 18.5° 1009.7 hPa 2.4 m/s
12:00 22.1° 1007.1 hPa 3.9 m/s 3.8 mm 23.1° 1006.9 hPa 5.6 m/s 0.3 mm 22.9° 1008.1 hPa 3.2 m/s 0.0 mm 18.4° 1008.9 hPa 3.4 m/s
15:00 19.8° 1006.3 hPa 3.7 m/s 4.2 mm 19.9° 1006.2 hPa 6.1 m/s 2.8 mm 20.6° 1007.4 hPa 3.3 m/s 0.9 mm 18.0° 1007.0 hPa 5.2 m/s
18:00 19.9° 1005.0 hPa 3.4 m/s 3.2 mm 22.5° 1004.9 hPa 3.5 m/s 6.2 mm 19.8° 1006.4 hPa 3.0 m/s 1.3 mm 19.3° 1006.0 hPa 3.5 m/s
21:00 19.7° 1004.4 hPa 2.3 m/s 3.0 mm 19.9° 1004.3 hPa 1.9 m/s 8.7 mm 19.8° 1005.6 hPa 2.1 m/s 2.1 mm 19.4° 1004.7 hPa 2.7 m/s
 04:55     21:59    Daglengte: 17:04 Donderdag 29 Jul
00:00 18.5° 1004.0 hPa 2.8 m/s 5.4 mm 18.7° 1003.9 hPa 2.5 m/s 9.8 mm 18.4° 1005.0 hPa 2.3 m/s 0.0 mm 17.3° 1004.9 hPa 2.4 m/s
03:00 18.4° 1003.1 hPa 3.4 m/s 1.3 mm 18.5° 1003.2 hPa 3.3 m/s 9.8 mm 17.9° 1003.9 hPa 1.9 m/s 0.0 mm 16.7° 1003.8 hPa 2.4 m/s
06:00 18.0° 1001.9 hPa 3.3 m/s 5.3 mm 18.3° 1001.9 hPa 3.1 m/s 9.8 mm 17.6° 1002.7 hPa 2.2 m/s 0.0 mm 17.3° 1002.9 hPa 3.2 m/s
09:00 19.1° 1001.3 hPa 3.8 m/s 4.1 mm 20.2° 1001.9 hPa 3.7 m/s 10.0 mm 19.3° 1001.5 hPa 3.7 m/s 0.4 mm 20.0° 1001.6 hPa 4.3 m/s
12:00 20.7° 1000.5 hPa 4.7 m/s 4.2 mm 23.8° 1001.0 hPa 6.0 m/s 10.0 mm 19.9° 1000.4 hPa 4.4 m/s 1.4 mm 23.1° 1001.2 hPa 5.8 m/s
15:00 21.5° 999.2 hPa 5.2 m/s 3.9 mm 24.5° 1000.8 hPa 6.1 m/s 10.3 mm 20.8° 998.8 hPa 4.9 m/s 0.7 mm 22.8° 1000.8 hPa 6.4 m/s
18:00 23.0° 1000.2 hPa 6.5 m/s 9.0 mm 23.0° 1000.2 hPa 6.5 m/s 9.0 mm
21:00 19.5° 999.9 hPa 4.6 m/s 9.0 mm 19.5° 999.9 hPa 4.6 m/s 9.0 mm
 04:58     21:56    Daglengte: 16:58 Vrijdag 30 Jul
00:00 18.0° 998.9 hPa 4.3 m/s 9.0 mm 18.0° 998.9 hPa 4.3 m/s 9.0 mm
03:00 17.3° 997.8 hPa 5.8 m/s 9.5 mm 17.3° 997.8 hPa 5.8 m/s 9.5 mm
06:00 16.5° 996.8 hPa 5.7 m/s 9.7 mm 16.5° 996.8 hPa 5.7 m/s 9.7 mm
09:00 16.5° 995.5 hPa 7.2 m/s 12.0 mm 16.5° 995.5 hPa 7.2 m/s 12.0 mm
12:00 17.5° 994.3 hPa 8.2 m/s 15.1 mm 17.5° 994.3 hPa 8.2 m/s 15.1 mm
15:00 16.6° 993.1 hPa 7.8 m/s 18.7 mm 16.6° 993.1 hPa 7.8 m/s 18.7 mm
18:00 15.5° 991.2 hPa 6.9 m/s 24.8 mm 15.5° 991.2 hPa 6.9 m/s 24.8 mm
21:00 14.0° 989.8 hPa 6.8 m/s 25.9 mm 14.0° 989.8 hPa 6.8 m/s 25.9 mm
 05:00     21:54    Daglengte: 16:54 Zaterdag 31 Jul
00:00 13.7° 991.0 hPa 5.9 m/s 26.0 mm 13.7° 991.0 hPa 5.9 m/s 26.0 mm
03:00 13.8° 991.7 hPa 6.6 m/s 26.9 mm 13.8° 991.7 hPa 6.6 m/s 26.9 mm
06:00 12.9° 993.2 hPa 5.0 m/s 27.0 mm 12.9° 993.2 hPa 5.0 m/s 27.0 mm
09:00 17.3° 994.4 hPa 4.8 m/s 27.0 mm 17.3° 994.4 hPa 4.8 m/s 27.0 mm
12:00 21.7° 995.5 hPa 3.5 m/s 27.0 mm 21.7° 995.5 hPa 3.5 m/s 27.0 mm
15:00 23.5° 996.1 hPa 4.4 m/s 27.0 mm 23.5° 996.1 hPa 4.4 m/s 27.0 mm
18:00 22.7° 997.2 hPa 5.3 m/s 27.0 mm 22.7° 997.2 hPa 5.3 m/s 27.0 mm
21:00 18.7° 999.0 hPa 4.3 m/s 27.0 mm 18.7° 999.0 hPa 4.3 m/s 27.0 mm
 05:03     21:51    Daglengte: 16:48 Zondag 01 Aug
00:00 14.0° 1000.6 hPa 3.0 m/s 27.0 mm 14.0° 1000.6 hPa 3.0 m/s 27.0 mm
03:00 13.0° 1001.1 hPa 1.7 m/s 27.0 mm 13.0° 1001.1 hPa 1.7 m/s 27.0 mm
06:00 14.3° 1000.9 hPa 1.5 m/s 27.0 mm 14.3° 1000.9 hPa 1.5 m/s 27.0 mm
09:00 18.2° 1000.2 hPa 3.4 m/s 27.3 mm 18.2° 1000.2 hPa 3.4 m/s 27.3 mm
12:00 16.9° 999.9 hPa 3.0 m/s 28.8 mm 16.9° 999.9 hPa 3.0 m/s 28.8 mm
15:00 17.8° 998.2 hPa 5.0 m/s 30.6 mm 17.8° 998.2 hPa 5.0 m/s 30.6 mm
18:00 18.8° 997.5 hPa 6.0 m/s 38.1 mm 18.8° 997.5 hPa 6.0 m/s 38.1 mm
21:00 17.2° 998.5 hPa 5.8 m/s 38.5 mm 17.2° 998.5 hPa 5.8 m/s 38.5 mm
 05:05     21:49    Daglengte: 16:44 Maandag 02 Aug
00:00 15.3° 998.9 hPa 3.3 m/s 38.7 mm 15.3° 998.9 hPa 3.3 m/s 38.7 mm
03:00 14.3° 999.3 hPa 2.2 m/s 38.7 mm 14.3° 999.3 hPa 2.2 m/s 38.7 mm
06:00 14.6° 1000.1 hPa 1.9 m/s 38.8 mm 14.6° 1000.1 hPa 1.9 m/s 38.8 mm
09:00 18.7° 999.6 hPa 3.1 m/s 38.9 mm 18.7° 999.6 hPa 3.1 m/s 38.9 mm
12:00 19.9° 999.8 hPa 3.8 m/s 39.2 mm 19.9° 999.8 hPa 3.8 m/s 39.2 mm
15:00 20.6° 999.3 hPa 3.4 m/s 39.3 mm 20.6° 999.3 hPa 3.4 m/s 39.3 mm
21:00 16.8° 997.9 hPa 2.4 m/s 39.4 mm 16.8° 997.9 hPa 2.4 m/s 39.4 mm
 05:07     21:46    Daglengte: 16:39 Dinsdag 03 Aug
03:00 13.3° 997.5 hPa 1.7 m/s 39.7 mm 13.3° 997.5 hPa 1.7 m/s 39.7 mm
09:00 17.1° 997.3 hPa 4.3 m/s 40.4 mm 17.1° 997.3 hPa 4.3 m/s 40.4 mm
15:00 19.4° 1000.8 hPa 5.8 m/s 40.4 mm 19.4° 1000.8 hPa 5.8 m/s 40.4 mm
21:00 15.1° 1002.4 hPa 4.9 m/s 40.5 mm 15.1° 1002.4 hPa 4.9 m/s 40.5 mm
 05:10     21:44    Daglengte: 16:34 Woensdag 04 Aug
03:00 11.5° 1003.1 hPa 3.9 m/s 41.3 mm 11.5° 1003.1 hPa 3.9 m/s 41.3 mm
09:00 16.1° 1005.3 hPa 4.2 m/s 41.3 mm 16.1° 1005.3 hPa 4.2 m/s 41.3 mm
15:00 18.9° 1005.2 hPa 6.7 m/s 41.5 mm 18.9° 1005.2 hPa 6.7 m/s 41.5 mm
21:00 16.4° 1006.7 hPa 4.1 m/s 41.7 mm 16.4° 1006.7 hPa 4.1 m/s 41.7 mm
 05:12     21:41    Daglengte: 16:29 Donderdag 05 Aug
03:00 15.8° 1005.1 hPa 5.2 m/s 44.1 mm 15.8° 1005.1 hPa 5.2 m/s 44.1 mm
09:00 17.5° 1003.3 hPa 6.8 m/s 49.6 mm 17.5° 1003.3 hPa 6.8 m/s 49.6 mm
15:00 18.7° 1008.7 hPa 1.8 m/s 2.1 mm
21:00 16.6° 1008.6 hPa 1.5 m/s 0.1 mm
 05:15     21:38    Daglengte: 16:23 Vrijdag 06 Aug
03:00 14.1° 1009.0 hPa 0.6 m/s 0.7 mm
09:00 16.7° 1008.6 hPa 1.5 m/s 0.4 mm
15:00 19.6° 1008.3 hPa 1.7 m/s 0.0 mm
21:00 17.3° 1007.8 hPa 0.9 m/s 0.2 mm
 05:17     21:36    Daglengte: 16:19 Zaterdag 07 Aug
03:00 14.9° 1007.7 hPa 1.1 m/s 0.6 mm
09:00 17.2° 1007.1 hPa 1.9 m/s 0.4 mm
15:00 20.3° 1006.7 hPa 2.5 m/s 0.5 mm
21:00 17.6° 1006.6 hPa 1.3 m/s 0.8 mm
 05:19     21:33    Daglengte: 16:14 Zondag 08 Aug
03:00 15.4° 1006.8 hPa 1.3 m/s 0.6 mm
09:00 17.2° 1006.4 hPa 2.1 m/s 0.8 mm
15:00 20.0° 1006.5 hPa 2.1 m/s 0.9 mm
21:00 17.4° 1006.9 hPa 1.0 m/s 1.1 mm
 05:22     21:30    Daglengte: 16:08 Maandag 09 Aug
03:00 15.2° 1007.2 hPa 1.2 m/s 1.1 mm
09:00 17.0° 1007.1 hPa 1.5 m/s 0.7 mm
15:00 19.6° 1007.4 hPa 1.7 m/s 1.6 mm
21:00 17.0° 1007.6 hPa 0.8 m/s 0.8 mm
 05:24     21:28    Daglengte: 16:04 Dinsdag 10 Aug
03:00 14.9° 1007.7 hPa 0.3 m/s 0.6 mm
09:00 16.7° 1007.5 hPa 0.8 m/s 0.8 mm
15:00 19.0° 1007.7 hPa 1.9 m/s 2.1 mm
FMI Hirlam - 7.5 km EWN WRFDA - 12 km DWD ICON - 7 km GFS - 25 km Basiskaart






























































Updatetijd (Europe/Amsterdam) Resolutie Lengte Stap
FMI Hirlam 14:00, 20:00, 02:00, 08:00 7.5 km 49h 1h
EWN WRFDA 10:30, 16:30, 22:30, 04:30 12 km 73h 1h
DWD ICON 11:45, 17:45, 23:45, 05:45 7 km 75h 1h
GFS 14:15, 20:15, 02:15, 08:15 25 km 237h 3h
30+ mm
25-30 mm
20-25 mm
15-20 mm
10-15 mm
6-10 mm
4-6 mm
2-4 mm
1-2 mm
0.5-1 mm
0.2-0.5 mm
0.1-0.2 mm
30+ mm
25-30 mm
20-25 mm
15-20 mm
10-15 mm
6-10 mm
4-6 mm
2-4 mm
1-2 mm
0.5-1 mm
0.2-0.5 mm
0.1-0.2 mm
Sneeuwval
Natte sneeuw
Hagel
Vorst
30+ mm
25-30 mm
20-25 mm
15-20 mm
10-15 mm
6-10 mm
4-6 mm
2-4 mm
1-2 mm
0.5-1 mm
0.2-0.5 mm
0.1-0.2 mm
Sneeuwval
Natte sneeuw
Hagel
Vorst
Onweer
50 mm
40 mm
30 mm
26 mm
22 mm
18 mm
14 mm
10 mm
9 mm
8 mm
7 mm
6 mm
5 mm
4.5 mm
4 mm
3.5 mm
3 mm
2.5 mm
2 mm
1.5 mm
1 mm
0.8 mm
0.6 mm
0.4 mm
0.2 mm
0.05 mm
35°
30°
25°
20°
15°
10°
-5°
-10°
-15°
-20°
-25°
-30°
-35°
33> m/s
29 m/s
25 m/s
21 m/s
17 m/s
14 m/s
11 m/s
8 m/s
5 m/s
3 m/s
0 m/s
2600 J/kg
2400 J/kg
2200 J/kg
2000 J/kg
1800 J/kg
1600 J/kg
1400 J/kg
1200 J/kg
1000 J/kg
800 J/kg
600 J/kg
400 J/kg
200 J/kg
70 dBZ
65 dBZ
60 dBZ
55 dBZ
50 dBZ
45 dBZ
40 dBZ
35 dBZ
30 dBZ
25 dBZ
20 dBZ
15 dBZ
10 dBZ
5 dBZ
-1 K
-2 K
-3 K
-4 K
-5 K
-6 K
-7 K
-8 K
-9 K
950 m²/s²
900 m²/s²
850 m²/s²
800 m²/s²
750 m²/s²
700 m²/s²
650 m²/s²
600 m²/s²
550 m²/s²
500 m²/s²
450 m²/s²
400 m²/s²
350 m²/s²
300 m²/s²
250 m²/s²
200 m²/s²
150 m²/s²
100 m²/s²
46 m/s
44 m/s
42 m/s
40 m/s
38 m/s
36 m/s
34 m/s
32 m/s
30 m/s
28 m/s
26 m/s
24 m/s
22 m/s
20 m/s
16 m/s
12 m/s
8 m/s
4 m/s
30 m/s
28 m/s
26 m/s
24 m/s
22 m/s
20 m/s
18 m/s
16 m/s
14 m/s
12 m/s
10 m/s
8 m/s
6 m/s
4 m/s
2 m/s
3.0
2.8
2.6
2.4
2.2
2.0
1.8
1.6
1.4
1.2
1.0
0.8
0.6
0.4
0.2
15
14
13
12
11
10
9
8
7
6
5
4
3
2
1
90%
80%
70%
60%
50%
40%
30%
20%
10%
42
40
38
36
34
32
30
28
26
24
22
20
18
16
14
12
90+ cm
80-90 cm
70-80 cm
60-70 cm